QPF
0.00 0.00 0.00 0.01 0.00 0.00 0.01 0.01 0.01 0.01 0.01 0.01 0.02 0.01 0.01 0.01 0.01 0.02 0.02 0.01 0.01 0.01 0.02 0.02 0.02 0.01 0.01 0.01 0.01 0.01 0.00 0.00 0.00 0.00 0.00 0.00 0.00 0.00 0.00 0.00 0.00 0.00 0.00 0.00
0.00 0.00 0.00 0.00 0.00 0.00 0.00 0.00 0.01 0.01 0.01 0.02 0.02 0.01 0.01 0.02 0.01 0.02 0.02 0.01 0.01 0.01 0.01 0.01 0.01 0.02 0.02 0.01 0.01 0.01 0.01 0.00 0.00 0.00 0.00 0.00 0.00 0.00 0.00 0.00 0.00 0.00 0.00 0.00
0.00 0.00 0.00 0.00 0.00 0.01 0.01 0.01 0.01 0.01 0.01 0.01 0.01 0.01 0.01 0.02 0.02 0.02 0.01 0.01 0.01 0.01 0.00 0.00 0.01 0.01 0.02 0.02 0.02 0.01 0.01 0.00 0.00 0.00 0.00 0.00 0.00 0.00 0.00 0.00 0.00 0.00 0.00 0.00
0.01 0.01 0.01 0.00 0.01 0.01 0.01 0.01 0.01 0.00 0.00 0.00 0.01 0.00 0.01 0.02 0.02 0.02 0.01 0.01 0.01 0.01 0.00 0.01 0.01 0.01 0.01 0.01 0.02 0.02 0.02 0.01 0.00 0.00 0.00 0.00 0.00 0.00 0.00 0.00 0.00 0.00 0.00 0.00
0.01 0.01 0.01 0.00 0.01 0.01 0.01 0.01 0.01 0.01 0.01 0.01 0.01 0.01 0.01 0.02 0.02 0.01 0.02 0.02 0.02 0.02 0.01 0.01 0.01 0.01 0.01 0.01 0.02 0.02 0.02 0.02 0.02 0.01 0.01 0.01 0.01 0.00 0.00 0.01 0.00 0.00 0.00 0.01
0.01 0.02 0.01 0.01 0.01 0.01 0.01 0.01 0.01 0.01 0.00 0.00 0.00 0.00 0.00 0.01 0.01 0.01 0.01 0.02 0.03 0.03 0.02 0.01 0.01 0.01 0.01 0.01 0.02 0.01 0.01 0.02 0.03 0.03 0.02 0.02 0.02 0.02 0.02 0.02 0.01 0.01 0.01 0.01
0.02 0.02 0.01 0.01 0.01 0.01 0.02 0.02 0.01 0.01 0.01 0.00 0.00 0.00 0.00 0.00 0.01 0.01 0.01 0.02 0.02 0.02 0.02 0.02 0.01 0.02 0.02 0.02 0.02 0.01 0.02 0.02 0.02 0.02 0.02 0.02 0.01 0.02 0.02 0.01 0.01 0.01 0.01 0.01
0.02 0.02 0.02 0.02 0.02 0.02 0.01 0.01 0.01 0.01 0.01 0.00 0.00 0.00 0.00 0.00 0.01 0.01 0.02 0.01 0.02 0.02 0.02 0.02 0.02 0.01 0.01 0.02 0.02 0.01 0.02 0.03 0.02 0.02 0.02 0.01 0.01 0.01 0.01 0.01 0.00 0.00 0.00 0.00
0.02 0.02 0.02 0.02 0.03 0.02 0.01 0.01 0.01 0.01 0.00 0.01 0.00 0.00 0.00 0.00 0.00 0.01 0.01 0.01 0.01 0.01 0.01 0.01 0.01 0.01 0.01 0.02 0.02 0.01 0.01 0.02 0.02 0.02 0.02 0.02 0.01 0.00 0.00 0.00 0.00 0.00 0.00 0.00
0.02 0.01 0.01 0.02 0.03 0.02 0.02 0.01 0.00 0.00 0.00 0.00 0.01 0.00 0.00 0.00 0.00 0.00 0.01 0.01 0.01 0.00 0.01 0.01 0.01 0.01 0.02 0.02 0.01 0.01 0.01 0.01 0.02 0.02 0.03 0.02 0.01 0.00 0.00 0.00 0.00 0.00 0.00 0.00
0.03 0.03 0.02 0.02 0.03 0.02 0.01 0.01 0.01 0.00 0.00 0.00 0.00 0.00 0.00 0.00 0.00 0.00 0.00 0.01 0.01 0.00 0.01 0.01 0.01 0.02 0.03 0.02 0.01 0.01 0.01 0.01 0.02 0.02 0.02 0.02 0.01 0.01 0.01 0.01 0.01 0.01 0.01 0.01
0.04 0.04 0.04 0.03 0.02 0.01 0.01 0.01 0.01 0.01 0.01 0.00 0.00 0.00 0.00 0.00 0.01 0.01 0.01 0.01 0.01 0.01 0.01 0.01 0.02 0.02 0.02 0.02 0.02 0.01 0.01 0.01 0.01 0.02 0.02 0.02 0.01 0.02 0.02 0.01 0.01 0.01 0.02 0.02
0.06 0.04 0.05 0.03 0.02 0.01 0.01 0.00 0.00 0.00 0.01 0.01 0.00 0.00 0.01 0.01 0.01 0.02 0.02 0.02 0.02 0.03 0.02 0.02 0.02 0.02 0.02 0.02 0.02 0.02 0.02 0.02 0.02 0.02 0.02 0.02 0.03 0.03 0.03 0.03 0.03 0.02 0.02 0.01
0.03 0.03 0.04 0.03 0.02 0.01 0.01 0.00 0.00 0.00 0.00 0.00 0.00 0.00 0.01 0.01 0.02 0.02 0.02 0.02 0.02 0.02 0.02 0.02 0.02 0.02 0.02 0.03 0.03 0.04 0.04 0.04 0.04 0.03 0.03 0.03 0.03 0.03 0.03 0.03 0.03 0.02 0.01 0.01
0.02 0.02 0.02 0.03 0.02 0.01 0.01 0.00 0.00 0.00 0.00 0.00 0.00 0.01 0.01 0.01 0.00 0.01 0.00 0.01 0.01 0.01 0.01 0.01 0.02 0.02 0.02 0.02 0.03 0.04 0.05 0.05 0.05 0.04 0.04 0.03 0.03 0.03 0.02 0.02 0.02 0.02 0.01 0.01
0.01 0.01 0.01 0.01 0.01 0.01 0.00 0.00 0.00 0.00 0.00 0.00 0.00 0.01 0.02 0.00 0.00 0.00 0.00 0.00 0.00 0.01 0.01 0.01 0.01 0.01 0.01 0.01 0.02 0.02 0.03 0.03 0.03 0.03 0.03 0.02 0.02 0.02 0.02 0.01 0.01 0.01 0.01 0.00
0.00 0.00 0.01 0.01 0.01 0.00 0.00 0.00 0.00 0.00 0.00 0.00 0.00 0.01 0.01 0.00 0.00 0.00 0.00 0.00 0.00 0.00 0.00 0.00 0.01 0.01 0.01 0.01 0.01 0.01 0.01 0.02 0.02 0.01 0.01 0.01 0.01 0.01 0.01 0.00 0.00 0.00 0.00 0.01
0.00 0.00 0.00 0.01 0.00 0.00 0.00 0.00 0.00 0.00 0.00 0.00 0.00 0.00 0.00 0.00 0.00 0.00 0.00 0.01 0.01 0.01 0.01 0.01 0.01 0.01 0.01 0.01 0.01 0.01 0.00 0.01 0.00 0.00 0.00 0.00 0.01 0.01 0.01 0.01 0.01 0.00 0.01 0.01
0.01 0.01 0.01 0.01 0.01 0.00 0.00 0.00 0.00 0.00 0.01 0.01 0.00 0.00 0.00 0.00 0.00 0.00 0.01 0.01 0.01 0.01 0.01 0.00 0.01 0.01 0.01 0.01 0.01 0.00 0.01 0.01 0.00 0.00 0.00 0.00 0.01 0.01 0.01 0.00 0.00 0.00 0.00 0.00
0.01 0.01 0.01 0.01 0.01 0.00 0.00 0.00 0.00 0.00 0.01 0.01 0.00 0.00 0.00 0.00 0.00 0.00 0.00 0.01 0.01 0.01 0.01 0.00 0.01 0.01 0.01 0.01 0.01 0.01 0.01 0.01 0.00 0.00 0.00 0.00 0.00 0.01 0.01 0.00 0.00 0.00 0.00 0.00
0.01 0.01 0.01 0.01 0.01 0.00 0.00 0.00 0.00 0.00 0.01 0.01 0.01 0.01 0.01 0.01 0.00 0.00 0.00 0.00 0.00 0.00 0.01 0.01 0.01 0.02 0.01 0.01 0.01 0.01 0.01 0.01 0.01 0.01 0.00 0.00 0.01 0.00 0.00 0.00 0.00 0.00 0.00 0.00
0.01 0.01 0.01 0.01 0.01 0.01 0.00 0.00 0.00 0.00 0.01 0.00 0.00 0.00 0.01 0.00 0.00 0.00 0.00 0.00 0.00 0.00 0.01 0.01 0.02 0.04 0.04 0.02 0.01 0.01 0.01 0.01 0.01 0.01 0.01 0.00 0.00 0.00 0.01 0.01 0.00 0.00 0.00 0.00
0.02 0.02 0.01 0.01 0.01 0.00 0.00 0.00 0.00 0.01 0.01 0.01 0.00 0.00 0.00 0.00 0.00 0.00 0.00 0.00 0.00 0.01 0.01 0.01 0.01 0.03 0.04 0.04 0.03 0.02 0.01 0.01 0.01 0.01 0.01 0.01 0.01 0.00 0.01 0.01 0.01 0.01 0.01 0.01
0.02 0.02 0.01 0.01 0.01 0.01 0.00 0.00 0.00 0.00 0.01 0.01 0.01 0.00 0.00 0.00 0.00 0.01 0.01 0.01 0.01 0.01 0.02 0.02 0.02 0.02 0.02 0.02 0.03 0.03 0.02 0.02 0.02 0.01 0.01 0.01 0.01 0.01 0.01 0.01 0.02 0.02 0.02 0.01
0.02 0.03 0.02 0.02 0.01 0.01 0.01 0.00 0.01 0.01 0.01 0.02 0.01 0.00 0.00 0.00 0.00 0.01 0.02 0.02 0.01 0.01 0.02 0.02 0.02 0.02 0.02 0.02 0.02 0.02 0.02 0.02 0.03 0.02 0.01 0.01 0.01 0.01 0.01 0.01 0.01 0.01 0.01 0.01
0.02 0.03 0.02 0.01 0.01 0.01 0.00 0.00 0.01 0.01 0.02 0.02 0.02 0.01 0.01 0.00 0.00 0.01 0.01 0.02 0.02 0.01 0.01 0.01 0.02 0.02 0.01 0.01 0.01 0.01 0.01 0.02 0.02 0.02 0.02 0.02 0.02 0.03 0.02 0.02 0.01 0.01 0.00 0.00
0.02 0.03 0.02 0.02 0.01 0.01 0.01 0.01 0.01 0.01 0.02 0.03 0.03 0.03 0.02 0.02 0.02 0.01 0.02 0.02 0.02 0.02 0.02 0.02 0.01 0.01 0.01 0.01 0.01 0.01 0.01 0.01 0.02 0.02 0.02 0.02 0.02 0.02 0.02 0.01 0.01 0.01 0.01 0.01
MSLP
1014.75 1014.95 1015.25 1015.61 1015.98 1016.26 1016.41 1016.38 1016.15 1015.75 1015.22 1014.63 1014.04 1013.55 1013.20 1013.05 1013.10 1013.34 1013.75 1014.26 1014.83 1015.42 1015.98 1016.49 1016.95 1017.35 1017.72 1018.06 1018.39 1018.71 1019.04 1019.36 1019.66 1019.94 1020.19 1020.40 1020.57 1020.71 1020.83 1020.94 1021.04 1021.16 1021.30 1021.47
1014.95 1014.95 1015.04 1015.17 1015.30 1015.39 1015.39 1015.29 1015.07 1014.75 1014.35 1013.91 1013.48 1013.13 1012.88 1012.76 1012.79 1012.96 1013.26 1013.66 1014.13 1014.64 1015.17 1015.70 1016.22 1016.72 1017.20 1017.66 1018.10 1018.53 1018.93 1019.30 1019.65 1019.97 1020.25 1020.51 1020.74 1020.95 1021.13 1021.30 1021.46 1021.61 1021.76 1021.92
1015.14 1014.96 1014.83 1014.73 1014.65 1014.55 1014.43 1014.26 1014.04 1013.77 1013.47 1013.15 1012.86 1012.60 1012.41 1012.31 1012.30 1012.39 1012.58 1012.87 1013.24 1013.69 1014.20 1014.76 1015.35 1015.96 1016.56 1017.15 1017.72 1018.24 1018.73 1019.17 1019.57 1019.93 1020.26 1020.58 1020.87 1021.14 1021.40 1021.64 1021.85 1022.05 1022.22 1022.37
1015.24 1014.90 1014.58 1014.28 1014.00 1013.74 1013.50 1013.26 1013.02 1012.79 1012.57 1012.34 1012.14 1011.95 1011.79 1011.68 1011.62 1011.64 1011.74 1011.93 1012.23 1012.64 1013.14 1013.74 1014.41 1015.12 1015.85 1016.56 1017.24 1017.87 1018.44 1018.94 1019.40 1019.81 1020.20 1020.57 1020.93 1021.28 1021.61 1021.92 1022.20 1022.44 1022.63 1022.79
1015.16 1014.68 1014.21 1013.74 1013.31 1012.92 1012.57 1012.27 1012.02 1011.80 1011.62 1011.46 1011.31 1011.16 1011.03 1010.90 1010.81 1010.77 1010.80 1010.93 1011.18 1011.57 1012.08 1012.72 1013.46 1014.26 1015.10 1015.92 1016.70 1017.42 1018.06 1018.63 1019.14 1019.61 1020.04 1020.47 1020.90 1021.32 1021.73 1022.12 1022.46 1022.75 1022.98 1023.15
1014.85 1014.27 1013.68 1013.09 1012.54 1012.04 1011.62 1011.27 1010.99 1010.79 1010.63 1010.50 1010.39 1010.28 1010.16 1010.04 1009.93 1009.86 1009.86 1009.96 1010.19 1010.57 1011.11 1011.78 1012.57 1013.44 1014.35 1015.25 1016.11 1016.89 1017.60 1018.22 1018.78 1019.30 1019.79 1020.28 1020.78 1021.27 1021.76 1022.21 1022.62 1022.97 1023.24 1023.44
1014.30 1013.66 1012.99 1012.32 1011.68 1011.12 1010.63 1010.24 1009.95 1009.74 1009.60 1009.50 1009.43 1009.35 1009.26 1009.16 1009.07 1009.01 1009.01 1009.11 1009.34 1009.73 1010.28 1010.97 1011.79 1012.69 1013.64 1014.58 1015.48 1016.30 1017.05 1017.72 1018.33 1018.90 1019.45 1020.00 1020.56 1021.12 1021.67 1022.20 1022.67 1023.07 1023.39 1023.63
1013.56 1012.87 1012.16 1011.44 1010.76 1010.15 1009.64 1009.22 1008.92 1008.71 1008.59 1008.51 1008.47 1008.44 1008.40 1008.35 1008.30 1008.27 1008.31 1008.43 1008.68 1009.08 1009.63 1010.32 1011.13 1012.03 1012.97 1013.91 1014.82 1015.66 1016.44 1017.15 1017.80 1018.42 1019.03 1019.64 1020.26 1020.89 1021.50 1022.08 1022.61 1023.07 1023.43 1023.72
1012.70 1012.00 1011.27 1010.53 1009.84 1009.21 1008.68 1008.26 1007.95 1007.75 1007.63 1007.59 1007.59 1007.61 1007.63 1007.64 1007.66 1007.70 1007.79 1007.96 1008.23 1008.63 1009.16 1009.82 1010.60 1011.45 1012.35 1013.26 1014.15 1014.99 1015.79 1016.53 1017.23 1017.90 1018.57 1019.24 1019.92 1020.60 1021.27 1021.90 1022.47 1022.97 1023.39 1023.71
1011.82 1011.12 1010.40 1009.67 1008.98 1008.36 1007.83 1007.41 1007.10 1006.90 1006.81 1006.79 1006.83 1006.91 1007.00 1007.09 1007.19 1007.31 1007.46 1007.67 1007.96 1008.36 1008.86 1009.47 1010.18 1010.96 1011.79 1012.65 1013.50 1014.33 1015.14 1015.91 1016.66 1017.39 1018.12 1018.86 1019.59 1020.32 1021.02 1021.68 1022.29 1022.81 1023.26 1023.63
1011.01 1010.33 1009.62 1008.92 1008.26 1007.66 1007.15 1006.73 1006.43 1006.24 1006.16 1006.16 1006.24 1006.37 1006.52 1006.69 1006.87 1007.06 1007.27 1007.52 1007.83 1008.21 1008.67 1009.22 1009.85 1010.55 1011.30 1012.10 1012.91 1013.72 1014.54 1015.34 1016.14 1016.94 1017.74 1018.53 1019.30 1020.07 1020.79 1021.47 1022.08 1022.62 1023.09 1023.50
1010.31 1009.66 1009.00 1008.35 1007.73 1007.16 1006.67 1006.28 1005.98 1005.80 1005.72 1005.74 1005.83 1005.99 1006.20 1006.42 1006.67 1006.92 1007.19 1007.47 1007.79 1008.15 1008.56 1009.05 1009.59 1010.21 1010.89 1011.62 1012.40 1013.21 1014.04 1014.88 1015.74 1016.59 1017.44 1018.28 1019.10 1019.88 1020.61 1021.28 1021.89 1022.43 1022.90 1023.32
1009.73 1009.13 1008.53 1007.94 1007.38 1006.87 1006.42 1006.05 1005.77 1005.58 1005.49 1005.50 1005.60 1005.77 1006.00 1006.26 1006.55 1006.84 1007.15 1007.45 1007.77 1008.11 1008.49 1008.92 1009.40 1009.95 1010.56 1011.25 1012.00 1012.81 1013.66 1014.54 1015.45 1016.36 1017.26 1018.13 1018.97 1019.75 1020.48 1021.13 1021.72 1022.24 1022.70 1023.12
1009.24 1008.71 1008.19 1007.69 1007.21 1006.77 1006.37 1006.03 1005.75 1005.56 1005.46 1005.45 1005.53 1005.69 1005.91 1006.18 1006.48 1006.80 1007.11 1007.43 1007.75 1008.08 1008.43 1008.81 1009.25 1009.75 1010.32 1010.98 1011.72 1012.53 1013.40 1014.32 1015.26 1016.21 1017.15 1018.05 1018.89 1019.67 1020.37 1021.00 1021.55 1022.05 1022.49 1022.90
1008.82 1008.37 1007.95 1007.55 1007.17 1006.81 1006.47 1006.16 1005.90 1005.71 1005.58 1005.54 1005.58 1005.71 1005.90 1006.15 1006.44 1006.75 1007.07 1007.39 1007.70 1008.02 1008.35 1008.71 1009.11 1009.59 1010.14 1010.78 1011.52 1012.34 1013.23 1014.17 1015.15 1016.12 1017.08 1017.98 1018.82 1019.59 1020.26 1020.86 1021.38 1021.85 1022.27 1022.68
1008.42 1008.07 1007.76 1007.48 1007.20 1006.93 1006.67 1006.40 1006.17 1005.96 1005.81 1005.73 1005.73 1005.80 1005.95 1006.16 1006.42 1006.70 1007.00 1007.31 1007.61 1007.92 1008.24 1008.59 1008.98 1009.44 1009.98 1010.62 1011.36 1012.18 1013.09 1014.04 1015.03 1016.02 1016.97 1017.88 1018.70 1019.45 1020.10 1020.67 1021.17 1021.61 1022.03 1022.43
1008.05 1007.81 1007.61 1007.44 1007.28 1007.10 1006.90 1006.69 1006.48 1006.28 1006.10 1005.98 1005.93 1005.94 1006.03 1006.19 1006.39 1006.64 1006.91 1007.19 1007.48 1007.77 1008.08 1008.42 1008.81 1009.27 1009.81 1010.44 1011.18 1012.00 1012.90 1013.86 1014.85 1015.83 1016.77 1017.66 1018.48 1019.20 1019.84 1020.39 1020.88 1021.32 1021.74 1022.15
1007.74 1007.59 1007.50 1007.43 1007.36 1007.27 1007.14 1006.98 1006.79 1006.59 1006.40 1006.25 1006.14 1006.10 1006.13 1006.22 1006.37 1006.56 1006.79 1007.03 1007.29 1007.57 1007.87 1008.20 1008.58 1009.04 1009.57 1010.20 1010.92 1011.74 1012.63 1013.57 1014.54 1015.50 1016.43 1017.31 1018.10 1018.82 1019.45 1020.01 1020.50 1020.96 1021.40 1021.83
1007.52 1007.45 1007.43 1007.44 1007.44 1007.42 1007.34 1007.22 1007.06 1006.87 1006.67 1006.49 1006.34 1006.25 1006.22 1006.25 1006.33 1006.47 1006.64 1006.84 1007.07 1007.31 1007.59 1007.90 1008.27 1008.71 1009.23 1009.85 1010.56 1011.35 1012.22 1013.14 1014.08 1015.03 1015.93 1016.79 1017.58 1018.29 1018.93 1019.50 1020.02 1020.51 1020.98 1021.45
1007.46 1007.43 1007.45 1007.50 1007.53 1007.54 1007.50 1007.40 1007.25 1007.07 1006.86 1006.67 1006.49 1006.36 1006.28 1006.26 1006.29 1006.37 1006.48 1006.63 1006.81 1007.01 1007.25 1007.54 1007.88 1008.30 1008.80 1009.39 1010.08 1010.85 1011.69 1012.58 1013.50 1014.41 1015.30 1016.14 1016.93 1017.65 1018.30 1018.90 1019.45 1019.97 1020.48 1020.99
1007.59 1007.56 1007.57 1007.61 1007.64 1007.64 1007.60 1007.50 1007.36 1007.17 1006.97 1006.77 1006.58 1006.43 1006.32 1006.25 1006.24 1006.26 1006.32 1006.41 1006.54 1006.69 1006.89 1007.14 1007.45 1007.83 1008.31 1008.87 1009.53 1010.27 1011.08 1011.94 1012.82 1013.71 1014.58 1015.42 1016.20 1016.92 1017.59 1018.21 1018.80 1019.36 1019.91 1020.47
1007.92 1007.84 1007.80 1007.79 1007.77 1007.73 1007.65 1007.53 1007.38 1007.20 1007.00 1006.80 1006.61 1006.45 1006.33 1006.24 1006.19 1006.17 1006.18 1006.22 1006.29 1006.40 1006.55 1006.75 1007.02 1007.37 1007.81 1008.34 1008.97 1009.68 1010.45 1011.28 1012.14 1013.00 1013.85 1014.67 1015.44 1016.17 1016.85 1017.49 1018.10 1018.70 1019.28 1019.88
1008.42 1008.25 1008.13 1008.02 1007.91 1007.80 1007.67 1007.51 1007.33 1007.15 1006.95 1006.77 1006.60 1006.45 1006.33 1006.24 1006.17 1006.13 1006.10 1006.10 1006.13 1006.19 1006.30 1006.46 1006.69 1007.00 1007.40 1007.90 1008.49 1009.16 1009.90 1010.70 1011.52 1012.35 1013.17 1013.97 1014.73 1015.45 1016.13 1016.77 1017.40 1018.01 1018.63 1019.25
1009.02 1008.75 1008.51 1008.29 1008.08 1007.87 1007.66 1007.45 1007.25 1007.06 1006.87 1006.71 1006.57 1006.45 1006.36 1006.28 1006.22 1006.17 1006.13 1006.11 1006.10 1006.13 1006.19 1006.31 1006.50 1006.78 1007.14 1007.61 1008.16 1008.80 1009.50 1010.26 1011.04 1011.83 1012.62 1013.38 1014.11 1014.81 1015.47 1016.11 1016.73 1017.35 1017.98 1018.62
1009.66 1009.28 1008.92 1008.58 1008.25 1007.94 1007.65 1007.39 1007.16 1006.97 1006.80 1006.67 1006.58 1006.51 1006.46 1006.41 1006.38 1006.34 1006.31 1006.28 1006.26 1006.26 1006.29 1006.38 1006.54 1006.78 1007.12 1007.54 1008.06 1008.65 1009.31 1010.02 1010.76 1011.50 1012.24 1012.95 1013.64 1014.30 1014.93 1015.55 1016.16 1016.77 1017.40 1018.04
1010.26 1009.78 1009.31 1008.85 1008.42 1008.02 1007.66 1007.36 1007.11 1006.92 1006.79 1006.70 1006.66 1006.65 1006.66 1006.67 1006.68 1006.68 1006.67 1006.65 1006.62 1006.62 1006.64 1006.71 1006.85 1007.06 1007.35 1007.74 1008.22 1008.77 1009.38 1010.03 1010.71 1011.40 1012.07 1012.73 1013.36 1013.97 1014.56 1015.14 1015.73 1016.32 1016.95 1017.61
1010.77 1010.21 1009.65 1009.10 1008.59 1008.12 1007.72 1007.39 1007.14 1006.97 1006.87 1006.84 1006.86 1006.92 1007.00 1007.08 1007.14 1007.19 1007.22 1007.22 1007.22 1007.22 1007.24 1007.30 1007.42 1007.60 1007.87 1008.22 1008.66 1009.16 1009.71 1010.31 1010.93 1011.55 1012.16 1012.75 1013.32 1013.88 1014.42 1014.97 1015.52 1016.10 1016.72 1017.38
Thickness
5684 5693 5694 5694 5695 5697 5691 5687 5679 5688 5695 5708 5717 5722 5727 5729 5729 5728 5726 5725 5725 5723 5722 5722 5721 5720 5720 5719 5719 5718 5715 5713 5713 5713 5712 5712 5711 5710 5710 5709 5708 5706 5704 5703
5680 5691 5692 5691 5696 5697 5697 5696 5694 5696 5700 5718 5723 5724 5725 5728 5728 5727 5726 5726 5727 5725 5724 5723 5723 5722 5721 5719 5718 5717 5715 5713 5712 5711 5710 5709 5709 5708 5707 5705 5704 5703 5702 5701
5661 5678 5682 5677 5693 5697 5698 5702 5700 5695 5705 5718 5718 5722 5724 5727 5729 5729 5729 5729 5728 5728 5727 5727 5727 5725 5722 5721 5719 5716 5714 5712 5711 5710 5708 5707 5706 5704 5703 5702 5701 5700 5699 5698
5654 5663 5654 5681 5705 5707 5703 5705 5709 5711 5715 5719 5722 5726 5729 5731 5731 5730 5732 5732 5731 5731 5730 5729 5729 5727 5724 5721 5718 5715 5713 5711 5710 5708 5706 5704 5703 5701 5700 5699 5697 5696 5695 5695
5646 5648 5660 5685 5702 5704 5698 5697 5711 5712 5715 5720 5723 5721 5722 5731 5734 5734 5735 5735 5735 5734 5733 5731 5729 5727 5723 5718 5716 5714 5712 5711 5710 5708 5705 5702 5700 5699 5698 5696 5694 5693 5692 5691
5644 5644 5646 5677 5703 5713 5704 5689 5711 5714 5714 5716 5715 5701 5710 5728 5732 5733 5734 5735 5734 5733 5731 5728 5728 5726 5721 5717 5714 5713 5713 5712 5710 5708 5705 5702 5700 5698 5696 5694 5692 5691 5689 5688
5642 5645 5659 5688 5703 5705 5679 5685 5710 5714 5716 5715 5711 5713 5720 5727 5729 5731 5732 5732 5732 5730 5727 5727 5727 5724 5719 5716 5715 5717 5715 5711 5709 5706 5704 5701 5698 5696 5694 5691 5688 5686 5684 5683
5641 5641 5656 5694 5695 5689 5691 5706 5711 5713 5715 5715 5716 5718 5721 5723 5725 5726 5726 5727 5728 5726 5724 5724 5724 5721 5718 5716 5719 5716 5713 5709 5706 5704 5702 5699 5695 5692 5690 5688 5684 5682 5680 5678
5654 5661 5682 5693 5696 5702 5704 5704 5707 5710 5714 5715 5713 5714 5716 5718 5720 5722 5723 5723 5723 5721 5719 5720 5720 5720 5716 5716 5716 5713 5710 5707 5704 5702 5700 5697 5694 5690 5687 5684 5682 5679 5677 5675
5657 5669 5682 5690 5696 5699 5702 5703 5707 5710 5711 5712 5709 5710 5712 5713 5714 5715 5716 5717 5717 5716 5714 5714 5715 5717 5716 5716 5714 5711 5708 5705 5702 5699 5696 5694 5692 5689 5685 5682 5680 5677 5675 5672
5652 5665 5675 5683 5689 5693 5697 5701 5704 5706 5708 5708 5707 5706 5707 5707 5709 5709 5710 5711 5712 5710 5709 5709 5711 5712 5713 5713 5712 5708 5705 5702 5699 5697 5694 5690 5688 5686 5685 5684 5683 5679 5676 5673
5649 5663 5665 5673 5685 5691 5692 5694 5697 5699 5700 5703 5704 5702 5703 5702 5703 5703 5704 5705 5704 5704 5704 5705 5706 5706 5707 5708 5707 5704 5700 5697 5695 5692 5690 5687 5683 5680 5679 5679 5679 5677 5676 5673
5658 5666 5669 5675 5681 5687 5688 5690 5693 5695 5695 5695 5697 5698 5698 5696 5696 5697 5697 5698 5698 5698 5699 5699 5700 5700 5701 5702 5702 5700 5697 5694 5691 5688 5686 5683 5680 5677 5672 5670 5671 5670 5669 5668
5659 5662 5663 5669 5673 5680 5683 5686 5688 5689 5690 5691 5691 5691 5691 5690 5690 5690 5690 5692 5693 5693 5693 5693 5693 5694 5695 5696 5695 5693 5692 5690 5687 5685 5682 5679 5677 5674 5671 5666 5663 5660 5661 5661
5654 5659 5661 5665 5669 5672 5676 5677 5678 5677 5679 5681 5683 5684 5684 5683 5683 5684 5685 5686 5687 5686 5686 5686 5686 5686 5689 5689 5688 5687 5685 5683 5681 5679 5677 5675 5672 5669 5665 5663 5659 5655 5653 5652
5647 5652 5656 5659 5661 5664 5667 5668 5668 5669 5671 5673 5674 5675 5677 5678 5678 5678 5678 5679 5678 5677 5678 5679 5679 5680 5682 5682 5681 5680 5678 5678 5676 5672 5670 5667 5665 5662 5659 5656 5653 5650 5647 5645
5639 5641 5646 5649 5654 5658 5661 5663 5664 5664 5665 5667 5668 5669 5669 5670 5669 5669 5670 5672 5672 5672 5672 5673 5673 5674 5675 5675 5674 5672 5670 5669 5668 5665 5663 5661 5658 5655 5652 5649 5647 5644 5642 5640
5638 5642 5645 5648 5651 5652 5654 5657 5658 5659 5659 5661 5662 5662 5661 5661 5661 5661 5662 5664 5664 5664 5665 5666 5667 5668 5668 5668 5667 5666 5664 5662 5660 5658 5656 5654 5651 5649 5645 5642 5640 5637 5634 5631
5634 5637 5640 5643 5646 5647 5649 5650 5652 5653 5654 5655 5654 5653 5654 5654 5654 5654 5655 5656 5655 5654 5656 5659 5661 5660 5660 5660 5660 5659 5657 5655 5652 5650 5648 5646 5643 5640 5638 5635 5632 5629 5626 5623
5629 5632 5634 5636 5639 5641 5642 5644 5645 5646 5646 5647 5646 5645 5644 5644 5645 5646 5647 5646 5646 5648 5650 5652 5652 5652 5652 5652 5652 5651 5649 5647 5644 5642 5639 5637 5634 5631 5629 5627 5625 5622 5619 5616
5622 5624 5627 5628 5630 5632 5634 5636 5637 5637 5638 5639 5638 5637 5637 5636 5637 5638 5638 5637 5638 5641 5644 5645 5645 5644 5644 5644 5643 5641 5639 5637 5635 5632 5630 5627 5625 5623 5620 5618 5616 5614 5611 5608
5614 5616 5618 5619 5621 5622 5625 5627 5629 5629 5629 5629 5630 5630 5629 5627 5628 5628 5629 5629 5631 5634 5635 5636 5636 5637 5636 5635 5633 5631 5629 5627 5625 5622 5620 5618 5615 5613 5611 5609 5606 5604 5601 5598
5606 5608 5609 5611 5613 5614 5615 5617 5619 5621 5621 5620 5621 5621 5620 5619 5620 5620 5618 5620 5623 5626 5626 5626 5627 5628 5627 5625 5623 5621 5619 5617 5615 5613 5610 5608 5606 5604 5601 5599 5596 5594 5591 5588
5597 5599 5601 5602 5604 5604 5604 5606 5609 5610 5611 5611 5611 5612 5612 5611 5610 5610 5612 5613 5615 5616 5615 5616 5617 5616 5615 5613 5611 5609 5607 5605 5603 5602 5600 5598 5595 5593 5591 5588 5586 5583 5580 5577
5589 5590 5592 5592 5593 5594 5595 5597 5598 5598 5599 5599 5599 5600 5602 5603 5602 5601 5602 5603 5604 5605 5604 5604 5604 5603 5602 5600 5599 5597 5596 5595 5593 5591 5589 5587 5584 5582 5580 5577 5575 5572 5569 5566
5579 5581 5583 5584 5585 5585 5587 5588 5588 5588 5588 5587 5587 5588 5589 5590 5591 5591 5591 5592 5593 5593 5592 5591 5591 5590 5589 5588 5587 5586 5584 5583 5582 5580 5578 5575 5573 5570 5568 5566 5564 5561 5558 5555
5568 5570 5572 5572 5573 5576 5578 5578 5578 5578 5578 5578 5577 5577 5578 5579 5579 5580 5580 5580 5580 5580 5579 5579 5579 5578 5577 5576 5575 5574 5573 5571 5570 5568 5566 5564 5561 5559 5557 5555 5552 5550 5547 5544